Regional Weather Roundup
Issued by NWS

Home | Current Version | Previous Version | Graphics & Text | Print | Product List | Glossary Off
Versions: 1 2 3 4 5 6 7 8 9 10 11 12 13 14 15 16 17 18 19 20 21 22 23 24 25 26 27 28 29 30 31 32 33 34 35 36 37 38 39 40 41 42 43 44 45 46 47 48 49 50

000
ASUS43 KOAX 261602
RWRNE

WEATHER ROUNDUP FOR NEBRASKA
NATIONAL WEATHER SERVICE OMAHA NE
1100 AM CDT SUN MAR 26 2017

NOTES: SATELLITE DATA IS BEING USED TO AUGMENT CLOUD COVER ABOVE
       12000 FEET.
       "FAIR" INDICATES FEW OR NO CLOUDS BELOW 12,000 FEET WITH NO
       SIGNIFICANT WEATHER AND/OR OBSTRUCTIONS TO VISIBILITY.

  * THESE STATIONS DO NOT REPORT WEATHER SUCH AS RAIN...SNOW OR FOG.

NEZ001>004-019>022-054>056-261700-
NEBRASKA PANHANDLE

CITY           SKY/WX    TMP DP  RH WIND       PRES   REMARKS
SCOTTSBLUFF    CLOUDY    49  31  49 N12       29.89R
ALLIANCE       CLOUDY    44  37  76 S3        29.87R
CHADRON        CLOUDY    46  35  65 N15       29.91R
KIMBALL        CLOUDY    46  38  75 N14G21    29.89R
SIDNEY         CLOUDY    44  36  73 S9        29.89R
$$

NEZ057>060-069>072-079>082-261700-
SOUTHWEST NEBRASKA

CITY           SKY/WX    TMP DP  RH WIND       PRES   REMARKS
NORTH PLATTE   CLOUDY    42  38  85 SE3       29.90S
IMPERIAL       CLOUDY    41  39  93 NE3       29.89S FOG
LEXINGTON      CLOUDY    41  38  87 CALM      29.92S
MCCOOK         CLOUDY    41  40  96 NE5       29.90R
OGALLALA       CLOUDY    45  42  91 CALM      29.89R
$$

NEZ005>010-023>029-035>040-094-261700-
NORTH CENTRAL NEBRASKA

CITY           SKY/WX    TMP DP  RH WIND       PRES   REMARKS
VALENTINE      MOSUNNY   46  38  73 SE3       29.89R
AINSWORTH      CLOUDY    40  40 100 S3        29.91R
BROKEN BOW     CLOUDY    44  41  89 CALM      29.90S
O`NEILL        CLOUDY    40  40  99 CALM      29.93R FOG
ORD            CLOUDY    42  38  85 CALM      29.92R
THEDFORD       CLOUDY    45  41  88 CALM      29.90S FOG
$$

NEZ041-046>049-061>064-073>077-083>087-261700-
SOUTH CENTRAL NEBRASKA

CITY           SKY/WX    TMP DP  RH WIND       PRES   REMARKS
GRAND ISLAND   CLOUDY    41  41 100 CALM      29.94R FOG
AURORA         CLOUDY    41  41  99 W5        29.93R FOG
HASTINGS       CLOUDY    43  39  86 CALM      29.94R
HEBRON         CLOUDY    42  40  93 CALM      29.93S
HOLDREGE       CLOUDY    42  40  93 CALM      29.91F
KEARNEY *      CLOUDY    43  37  81 CALM      29.93S
YORK           CLOUDY    41  41 100 NW3       29.93R
$$

NEZ011>018-030>034-042>045-261700-
NORTHEAST NEBRASKA

CITY           SKY/WX    TMP DP  RH WIND       PRES   REMARKS
NORFOLK        CLOUDY    40  37  89 N5        29.92R FOG
ALBION         CLOUDY    42  39  90 NW3       29.93R FOG
BLAIR          CLOUDY    41  40  96 N5        29.91R FOG
FREMONT        CLOUDY    42  40  92 CALM      29.94R
TEKAMAH        CLOUDY    42  38  85 N8        29.93R
WAYNE          CLOUDY    40  39  97 N6        29.93R
$$

NEZ050>053-065>068-078-088>093-261700-
SOUTHEAST NEBRASKA

CITY           SKY/WX    TMP DP  RH WIND       PRES   REMARKS
LINCOLN        CLOUDY    43  40  89 N5        29.95R
OMAHA EPPLEY   CLOUDY    43  38  82 N6        29.92R
BEATRICE       CLOUDY    43  40  89 NW5       29.93R
FALLS CITY     CLOUDY    44  41  89 W7        29.93R
NEBRASKA CITY  CLOUDY    42  40  93 NW5       29.93R
PLATTSMOUTH    CLOUDY    42  38  85 NW3       29.92R FOG
$$

NEZ044-045-051>053-067-261700-
OMAHA AREA

CITY           SKY/WX    TMP DP  RH WIND       PRES   REMARKS
OMAHA EPPLEY   CLOUDY    43  38  82 N6        29.92R
BLAIR          CLOUDY    41  40  96 N5        29.91R FOG
FREMONT        CLOUDY    42  40  92 CALM      29.94R
MILLARD        CLOUDY    44  40  86 NW6       29.93R
OFFUTT AFB     CLOUDY    43  39  85 NW3       29.93R
PLATTSMOUTH    CLOUDY    42  38  85 NW3       29.92R FOG
WAHOO          CLOUDY    42  39  91 N5        29.93S
$$




USA.gov is the U.S. government's official web portal to all federal, state and local government web resources and services.